City of Derry Airport

Jump to: basic info | weather | frequencies | runways | comments

Related pages: nearby airports | nearby navaids | notams | map

Basic information (top)

Codes: LDY EGAE
Location: lon 55.042801, lat -7.161110, elev 22 ft / 7 m msl
Status: medium_airport
Scheduled airline service: yes
Links: Wikipedia Mobile

Weather (top)

Current conditions (rec'd 2014/07/29 16:20Z):

EGAE 291620Z 27012KT 9999 VCSH FEW018 BKN028 16/12 Q1017

Airport forecast for Belfast International Airport 40nm (74km) SE (rec'd 2014/07/29 12:15Z):

TAF TAF EGAA 291102Z 2912/3012 29011KT 9999 FEW018 BKN025 
      BECMG 2921/2924 23011KT BKN014 
      BECMG 3000/3004 BKN009 PROB40 
      TEMPO 3005/3012 6000 RA SHRA 
      BECMG 3009/3012 FEW009 BKN020

Frequencies (top)

Verify before use: may be inaccurate or out of date.

APP: 123.625 MHz (APP)
TWR: 134.15 MHz (TWR)

Runways (top)

02/20: 3,955 x 148 ft (1,205 x 45 m) — paved — lighted — threshold 02 displaced 435 ft (133 m)

08/26: 6,076 x 147 ft (1,852 x 45 m) — paved — lighted — threshold 08 displaced 433 ft (132 m)

Latest comments (top)

Excellant airport: You have full services ils , fuel car ... [read]

More... (top)

See also NOTAMs and nearby airports and navaids, or visit the City of Derry Airport page at the main OurAirports website..